map of TPP home
TPP - Airport
Location
City:  Tarapoto, San Martín, Perú
Name:Capitán FAP Guillermo del Castillo Paredes Airport
ICAO:SPST
IATA:TPP

Details
Type:Airport (Aerodrome, Airfield)
Use:Public/Civil
Latitude:6°30'31"S (-6.508743)
Longitude:76°22'24"W (-76.373246)
Elevation:868 ft (265 m)
Variation:4.03°W (WMM2015v2 magnetic declination)
-0.17° annual change
Runways:1
Longest:8530 × 148 ft (2600 × 45 m), paved

Time
Time Zone:UTC-5
Local Time:

Weather
METAR:SPST 041411Z 15004KT 2000 RA BKN010 OVC030 25/24 Q1015
TAF:SPST 041100Z 0412/0512 00000KT 5000 BR SCT012 BKN070 TX32/0419Z TN22/0511Z
TEMPO 0412/0415 2000 RA BKN010 BKN070
FM041700 28005KT 9999 SCT020 BKN080
TEMPO 0421/0423 4000 RA

Related Locations
Nearby:
Farthest:RDN: 12369 mi / 19906 km
Redang [Redang Airport], Redang Island (Pulau Redang), 11, MY

Find:

   beyond  
but within

Other Information
Maps:
NOTAMs:
Links:
Sources:

  
  • flag of Perú
  

Sectional Chart

Flight Planning
at skyvector.com

Satellite Image

Google Maps Satellite view

 

Copyright © 2004-2019 Karl L. Swartz. All rights reserved.
The Great Circle Mapper name and logo are trademarks of the Great Circle Mapper.
All other trademarks mentioned herein belong to their respective owners.
Please see credits for attibutions and further copyright information.

  Follow gcmap on Facebook Follow gcmap on Twitter GCmap on LinkedIn

hCard Microformat

Geo Microformat